Location: Hampstead
(51.5500°N, 0.1833°W)
Time: 13:47:38
(UTC+00:00)

Daily predictions for brighter satellites

Satellite Brightness Start Highest point End
(mag) Time Altitude Azimuth Time Altitude Azimuth Time Altitude Azimuth
NOSS 2-2 (C) 4.2 16:24:29 10° NW 16:29:15 66° NE 16:35:52 10° SE
Cosmos 1818 4.2 16:25:03 10° NW 16:30:09 37° NNE 16:35:12 10° E
Cosmos 2034 Rocket 4.1 16:25:07 10° SSE 16:31:06 56° E 16:37:07 10° NNE
SL-16 R/B 3.4 16:27:01 10° NNW 16:31:26 22° NE 16:35:50 10° E
FengYun 1-2 T 4.4 16:26:12 10° SE 16:31:33 50° ENE 16:36:53 10° N
Cosmos 2237 Rocket 4.3 16:30:48 10° NNW 16:31:48 10° N 16:32:46 10° N
Iridium 2 4.2 16:28:07 10° NNW 16:31:51 62° W 16:35:32 10° S
CZ-4B R/B 2.9 16:28:08 10° SE 16:31:57 50° ENE 16:35:37 10° N
Cosmos 1408 Rocket 3.7 16:30:01 10° NNW 16:34:23 80° W 16:38:47 10° S
ADEOS 3.8 16:30:49 10° SSE 16:36:03 79° WSW 16:41:19 10° NNW
Cosmos 2082 Rocket 3.3 16:33:28 10° SSE 16:37:58 25° ESE 16:42:28 10° NE
USA 267 4.0 16:32:51 10° ENE 16:38:57 40° SE 16:45:02 10° SSW
YAOGAN 6 4.5 16:36:25 10° SSW 16:39:48 36° W 16:43:14 10° NNW
SMAP 3.3 16:38:06 10° SE 16:42:32 45° ENE 16:46:59 10° N
Cosmos 1743 Rocket 3.5 16:40:12 10° N 16:44:33 74° E 16:48:52 10° SSE
Cosmos 2333 Rocket 4.0 16:42:53 10° NNW 16:45:54 14° NNE 16:48:54 10° NE
Meteor 1-25 Rocket 4.2 16:40:30 10° N 16:46:05 70° ENE 16:51:41 10° SSE
Cosmos 2278 4.0 16:42:12 10° NNW 16:47:45 48° NE 16:53:14 10° SE
Cosmos 1763 Rocket 3.5 16:43:25 10° S 16:48:26 65° ESE 16:53:32 10° NNE
Cosmos 2026 Rocket 4.1 16:42:52 10° N 16:48:52 53° ENE 16:54:48 10° SSE
ARGOS 4.2 16:45:15 10° ESE 16:49:28 24° ENE 16:53:40 10° N
Cosmos 1602 3.8 16:45:43 10° N 16:49:32 53° ENE 16:53:19 10° SSE
Cosmos 1634 Rocket 4.5 16:44:12 10° SSE 16:50:01 40° E 16:55:51 10° NNE
SL-16 R/B 4.3 16:49:58 10° NW 16:52:07 12° NNW 16:54:16 10° N
Cosmos 44 Rocket 3.7 16:47:40 10° NW 16:52:25 42° NE 16:57:00 10° ESE
CZ-4B DEB 4.4 16:47:21 10° SE 16:52:36 48° ENE 16:57:52 10° N
SJ 16-02 4.4 16:49:56 10° NW 16:52:50 17° W 16:55:44 10° SW
Cosmos 2195 Rocket 4.5 16:46:51 10° N 16:53:00 65° ENE 16:59:10 10° SSE
SeaSat 1 3.4 16:50:32 10° NNE 16:55:12 43° NW 16:59:51 10° WSW
Cosmos 1833 Rocket 2.8 16:49:46 10° SSW 16:55:17 63° ESE 17:00:53 10° NE
Cosmos 1666 Rocket 4.3 16:51:43 10° N 16:55:42 31° ENE 16:59:39 10° SE
Cosmos 841 Rocket 4.1 16:52:12 10° S 16:56:54 37° ESE 17:01:37 10° NE
CZ-2C R/B 3.0 16:52:41 10° SSE 16:57:32 82° WSW 17:02:19 10° NNW
Okean O Rocket 2.8 16:55:58 10° ESE 16:59:22 22° ENE 17:02:47 10° N
USA 306 3.0 16:55:41 10° WNW 16:59:55 62° N 17:03:36 13° E
Cosmos 1937 Rocket 3.6 16:55:20 10° NNW 17:00:42 86° WSW 17:06:01 10° SSE
Cosmos 1809 Rocket 4.4 16:54:55 10° N 17:01:02 70° ENE 17:07:05 10° SSE
Cosmos 2219 Rocket 4.0 16:59:40 10° N 17:02:34 14° NNE 17:04:47 11° NE
H-2A R/B 2.4 16:58:04 10° SE 17:02:48 40° ENE 17:07:27 10° N
ISS -2.5 16:59:58 10° W 17:03:12 42° SSW 17:06:25 10° SE
Cosmos 1939 Rocket 2.8 16:59:50 10° SSE 17:03:55 72° ENE 17:07:59 10° N
COSMOS 2406 3.4 16:58:51 10° S 17:04:28 58° ESE 17:10:06 10° NE
ATLAS 2AS CENTAUR R/B 3.9 16:57:52 10° WNW 17:04:46 34° N 17:10:36 13° NE
Cosmos 372 Rocket 3.9 17:00:16 10° NNW 17:05:31 72° ENE 17:10:46 10° SSE
Cosmos 1606 4.2 17:02:04 10° SW 17:05:36 37° WNW 17:09:11 10° N
Cosmos 1125 Rocket 4.3 17:02:09 10° N 17:06:41 29° NE 17:11:14 10° ESE
CZ-2C R/B 3.7 17:02:59 10° NE 17:06:54 21° E 17:10:49 10° SE
Cosmos 1500 3.1 17:05:44 10° N 17:09:26 57° ENE 17:13:06 10° SSE
Cosmos 1500 Rocket 4.3 17:07:52 10° NNW 17:12:14 57° W 17:16:32 10° S
USA 234 3.4 17:08:03 10° ESE 17:14:36 81° SSW 17:21:11 10° WNW
Sich 1 2.9 17:12:43 10° N 17:17:03 80° E 17:21:22 10° SSE
Cosmos 1782 2.9 17:13:31 10° S 17:17:25 54° E 17:21:19 10° NNE
Cosmos 2221 3.9 17:13:39 10° SW 17:17:42 39° WNW 17:21:48 10° N
SL-08 R/B 3.7 17:13:52 10° N 17:18:34 65° WNW 17:23:09 10° SSW
CZ-2D R/B 3.4 17:15:37 10° SSE 17:19:19 50° ENE 17:23:02 10° N
USA 307 3.0 17:15:20 10° WNW 17:19:35 64° N 17:22:25 20° E
CZ-4B R/B 3.4 17:16:43 10° SE 17:21:49 46° ENE 17:26:53 10° N
ATLAS 5 CENTAUR R/B 2.7 17:14:24 10° NW 17:24:06 56° NNE 17:26:27 20° E
Cosmos 1805 Rocket 3.8 17:20:03 10° NNW 17:24:23 70° W 17:28:41 10° S
NOAA 6 4.1 17:19:43 10° SSE 17:24:52 82° WSW 17:30:02 10° NNW
SL-24 R/B - RUBIN 2 4.4 17:22:49 10° NW 17:27:17 54° SW 17:31:30 10° SSE
PAYLOAD B 4.2 17:22:25 10° SSE 17:27:59 70° ENE 17:33:34 10° NNW
ERBS 3.4 17:26:55 10° WNW 17:29:49 30° N 17:30:53 24° NNE
deb Chang Zheng 4 3.8 17:27:46 10° SE 17:31:52 43° ENE 17:35:58 10° N
Cosmos 2360 Rocket 3.1 17:30:41 10° NNW 17:35:31 28° NE 17:37:21 23° ENE
Lacrosse 5 rocket 1.1 17:32:23 10° WNW 17:36:17 88° NNE 17:39:14 18° ESE
Cosmos 540 Rocket 3.4 17:31:23 10° SSW 17:36:29 87° WNW 17:41:12 12° NNE
H-2A R/B 4.4 17:40:45 13° NNE 17:40:45 13° NNE 17:41:25 10° N
Cosmos 1666 2.5 17:34:49 10° N 17:38:33 68° ENE 17:42:14 10° SSE
ATLAS CENTAUR R/B 3.6 17:35:33 10° WNW 17:38:40 18° NNW 17:41:01 13° NNE
USA 308 2.9 17:37:57 10° WNW 17:42:13 69° NNE 17:44:08 31° E
Meteor 2-16 Rocket 4.4 17:41:50 10° N 17:48:00 83° E 17:54:08 10° SSE
Meteor 1-11 Rocket 4.0 17:45:41 10° N 17:51:05 45° ENE 17:56:32 10° SE
COSMOS 2428 4.2 17:47:59 10° NNW 17:51:55 18° NNE 17:52:06 18° NNE
Meteor 1-26 Rocket 4.4 17:45:57 10° SSW 17:51:59 82° WNW 17:58:05 10° NNE
COSMOS 2455 2.8 17:46:33 10° SSW 17:52:36 85° SE 17:56:39 22° NE
PSLV R/B 4.3 17:51:08 10° S 17:54:46 59° WSW 17:58:31 10° NNW
CZ-4 R/B 3.4 17:59:19 15° N 17:59:19 15° N 18:00:05 10° N
Cosmos 2322 Rocket 2.4 17:51:39 10° NNW 17:57:13 49° NE 18:00:16 25° ESE
Cosmos 1814 Rocket 3.9 17:52:42 10° SSW 17:57:53 71° ESE 18:00:57 25° NNE
Cosmos 921 Rocket 3.6 17:54:28 10° SSE 17:57:55 34° ESE 17:57:55 34° ESE
Cosmos 1570 Rocket 4.0 17:53:50 10° S 17:59:00 64° ESE 18:01:47 27° NE
YAOGAN 3 4.5 17:54:43 10° SSE 17:59:02 67° ENE 18:03:23 10° N
Cosmos 2298 Rocket 3.9 17:55:18 10° NNW 18:00:39 72° ENE 18:05:58 10° SSE
SL-08 RB Rocket 3.8 17:56:40 10° SE 18:01:09 51° ENE 18:05:37 10° N
COSMO-SKYMED 1 2.7 17:59:55 37° NE 18:01:18 52° E 18:05:33 10° S
Cosmos 1980 Rocket 3.3 17:56:19 10° NW 18:01:42 45° WSW 18:07:01 10° S
CZ-4C R/B 3.4 17:55:27 10° NW 18:02:29 65° SW 18:10:44 10° SSE
Cosmos 1356 Rocket 3.7 18:00:30 10° N 18:04:07 45° NE 18:04:07 45° NE
Cosmos 1633 Rocket 3.2 18:01:38 10° NNW 18:06:01 72° W 18:10:23 10° S
Cosmos 1812 2.8 18:03:42 10° SSW 18:07:32 73° WNW 18:09:54 22° N
USA 305 2.8 18:03:25 10° WNW 18:07:42 84° NNE 18:08:38 53° E
Cosmos 2142 Rocket 4.5 18:05:54 10° S 18:12:05 85° W 18:18:23 10° N
Feng Yun 1-1 Rocket 4.3 18:06:38 10° SSE 18:12:28 64° ENE 18:18:14 10° N
YAOGAN 1 3.4 18:14:04 34° NNE 18:14:04 34° NNE 18:16:48 10° N
Cosmos 1818 3.9 18:08:39 10° NW 18:14:06 66° SW 18:19:29 10° SSE
CZ-4 R/B 4.3 18:10:08 10° SSE 18:14:16 87° ENE 18:18:27 10° NNW
Cosmos 1151 Rocket 3.2 18:10:15 10° SSW 18:14:35 73° WNW 18:17:49 18° N
Cosmos 2279 Rocket 4.0 18:09:07 10° S 18:15:20 85° W 18:21:35 10° N
SL-16 R/B 2.1 18:10:44 10° NNW 18:16:28 80° ENE 18:21:04 16° SE
Cosmos 2266 Rocket 3.9 18:10:18 10° N 18:16:42 74° ENE 18:23:08 10° SSE
Cosmos 2237 Rocket 4.1 18:15:35 10° N 18:17:59 14° NNE 18:17:59 14° NNE
Cosmos 2082 Rocket 2.4 18:15:55 10° SW 18:21:35 69° WNW 18:24:52 26° NNE
USA 267 3.2 18:19:25 36° ENE 18:22:25 86° NNW 18:28:58 10° WSW
Landsat 5 4.1 18:25:10 39° SSE 18:25:10 39° SSE 18:27:51 10° S
SKYMED 3 4.4 18:24:19 49° NNE 18:25:29 88° ESE 18:29:51 10° SSW
NOAA 15 4.5 18:20:31 10° SSE 18:25:45 67° ENE 18:31:00 10° N
ARGOS 3.4 18:23:52 10° S 18:29:16 71° WSW 18:34:41 10° NNW
Cosmos 1933 Rocket 3.7 18:26:59 10° N 18:30:32 58° N 18:30:32 58° N
GEOS 3 Rocket 3.5 18:30:35 55° ESE 18:31:41 74° NE 18:36:52 10° NW
Cosmos 2333 Rocket 3.0 18:26:41 10° NNW 18:31:05 34° NNE 18:31:05 34° NNE
Meteor 2-15 4.3 18:26:16 10° S 18:32:23 84° E 18:38:31 10° NNE
Cosmos 44 Rocket 4.3 18:29:21 10° NW 18:34:02 45° WSW 18:38:14 12° SSE
Okean O Rocket 2.2 18:30:59 10° S 18:35:22 58° WSW 18:39:48 10° NNW
Cosmos 2208 Rocket 4.0 18:30:19 10° SSW 18:35:45 84° WNW 18:37:42 42° NNE
Cosmos 2150 Rocket 4.3 18:31:57 10° NNW 18:37:06 67° WSW 18:42:16 10° SSE
Cosmos 1470 Rocket 4.1 18:32:45 10° NNW 18:37:09 59° W 18:41:33 10° S
Cosmos 1328 Rocket 4.0 18:34:08 10° SSW 18:38:32 60° WNW 18:40:29 31° N
SL-16 R/B 4.4 18:37:03 10° N 18:38:38 12° N 18:38:38 12° N
ISS -0.5 18:38:29 10° WSW 18:39:19 11° SW 18:40:10 10° SSW
Cosmos 1833 Rocket 4.2 18:34:38 10° WSW 18:39:38 32° NW 18:43:03 18° N
USA 306 3.0 18:35:40 10° WNW 18:39:36 70° WSW 18:39:36 70° WSW
H-2A R/B 3.6 18:37:38 10° SSW 18:42:18 35° W 18:46:53 10° NNW
IRS-1C Rocket 4.5 18:43:34 48° NNE 18:43:34 48° NNE 18:47:35 10° N
MOS 1-B Rocket 4.5 18:41:02 10° N 18:46:48 60° WNW 18:53:19 10° SW
CZ-2C R/B 2.8 18:44:29 23° N 18:47:43 66° WNW 18:52:49 10° SSW
Cosmos 2219 Rocket 3.3 18:43:01 10° NNW 18:46:30 30° N 18:46:30 30° N
Cosmos 1125 Rocket 4.0 18:43:58 10° NNW 18:49:08 58° WSW 18:54:18 10° S
SKYMED 2 4.1 18:48:31 46° NNW 18:49:24 56° WNW 18:53:39 10° SSW
USA 32 4.1 18:45:08 10° S 18:49:26 61° SSE 18:49:26 61° SSE
NOSS 3-4 (A) 3.9 18:48:16 10° NW 18:54:45 52° NNE 18:55:00 52° NE
ATLAS CENTAUR R/B 2.7 18:48:19 10° W 18:54:28 50° NW 18:54:28 50° NW
NOSS 3-4 (C) 3.9 18:48:22 10° NW 18:54:51 52° NNE 18:55:05 51° NE
ATLAS 2AS CENTAUR R/B 3.5 18:50:43 10° NW 18:57:40 38° NNE 18:58:03 38° NNE
Meteor 1-27 Rocket 4.0 18:52:30 10° S 18:56:41 53° S 18:56:41 53° S
Cosmos 1900 4.5 18:53:21 10° SW 18:57:57 68° WNW 18:57:57 68° WNW
USA 307 3.9 18:55:19 10° WNW 18:58:27 45° W 18:58:27 45° W
Lacrosse 5 rocket 3.5 19:11:56 10° W 19:14:51 21° SW 19:14:51 21° SW
ATLAS CENTAUR R/B 4.1 19:16:00 10° NNW 19:17:07 14° NNW 19:17:07 14° NNW
Cosmos 2360 Rocket 2.5 19:14:27 10° NNW 19:19:09 61° NW 19:19:09 61° NW
COSMOS 2428 4.4 19:31:47 10° NNW 19:34:07 25° NNW 19:34:07 25° NNW
COSMOS 2455 4.2 19:33:55 10° W 19:39:14 31° NNW 19:39:49 31° NNW
Cosmos 2322 Rocket 3.5 19:35:58 10° NW 19:41:09 36° WSW 19:42:10 34° SW
SL-16 R/B 4.4 19:55:49 10° NW 19:59:56 21° W 20:03:05 13° SW
USA 267 4.0 20:06:46 47° NW 20:06:46 47° NW 20:11:35 10° W
Cosmos 2082 Rocket 4.3 20:02:36 10° W 20:06:44 20° NNW 20:06:44 20° NNW
Cosmos 2333 Rocket 4.2 20:10:56 10° NW 20:13:07 23° NW 20:13:07 23° NW
ATLAS 2AS CENTAUR R/B 4.4 20:42:13 10° NW 20:45:28 28° NW 20:45:28 28° NW
